Regional Weather Roundup
Issued by NWS

Home | Current Version | Previous Version | Graphics & Text | Print | Product List | Glossary On
Versions: 1 2 3 4 5 6 7 8 9 10 11 12 13 14 15 16 17 18 19 20 21 22 23 24 25 26 27 28 29 30 31 32 33 34 35 36 37 38 39 40 41 42 43 44 45 46 47 48 49 50
000
ASUS45 KCYS 140410
RWRWY

WYOMING REGIONAL WEATHER ROUNDUP
NATIONAL WEATHER SERVICE CHEYENNE WY
900 PM MST SAT FEB 13 2016

NOTE:  "FAIR" INDICATES FEW OR NO CLOUDS BELOW 12,000 FEET
WITH NO SIGNIFICANT WEATHER AND/OR OBSTRUCTIONS TO VISIBILITY.

WYZ001-140500-
YELLOWSTONE NATIONAL PARK

CITY           SKY/WX    TMP DP  RH WIND       PRES   REMARKS
LK YELLOWSTONE   N/A     23  15  71 VRB6      30.16S WCI  16
W YELLOWSTONE  NOT AVBL

$$
WYZ002>013-054>058-071-098>099-140500-
NORTHERN WYOMING

CITY           SKY/WX    TMP DP  RH WIND       PRES   REMARKS
JACKSON        MOCLDY    28  23  80 S13       30.20R WCI  18
CODY           FAIR      39  14  35 W21G31    30.07S WCI  29
GREYBULL       FAIR      32  19  58 W8        30.06S WCI  25
WORLAND        FAIR      29  21  72 CALM      30.07R
SHERIDAN       CLEAR     37  18  44 W8        30.03R WCI  31
BUFFALO        FAIR      38  16  40 NW20      30.03R WCI  28
GILLETTE       FAIR      30  27  88 W12       29.99R WCI  20
HULETT         CLOUDY    36  32  87 W10       29.96R WCI  28
NEWCASTLE      FAIR      32  32 100 NW13      29.97R WCI  22

$$
WYZ014>020-022>026-101>103-140500-
CENTRAL WYOMING

CITY           SKY/WX    TMP DP  RH WIND       PRES   REMARKS
BIG PINEY      FAIR      27  16  63 N12       30.17F WCI  17
PINEDALE         N/A    N/A N/A N/A MISG        N/A
DUBOIS         FAIR      27  12  54 NW17G23   30.11R WCI  14
LANDER         FAIR      33  16  49 CALM      30.11R
RIVERTON       FAIR      36  14  40 NW20      30.09R WCI  25
CASPER         FAIR      26  21  81 W8        30.08R WCI  18
DOUGLAS        FAIR      32  25  75 NW13      30.05R WCI  22

$$
WYZ021-027>030-104>119-140500-
SOUTHERN WYOMING

CITY           SKY/WX    TMP DP  RH WIND       PRES   REMARKS
EVANSTON       FAIR      29  21  72 SW14      30.26S WCI  18
FORT BRIDGER   CLEAR     32  25  74 W16       30.26R WCI  21
ROCK SPRINGS   FAIR      33  17  51 W22G31    30.17F WCI  21
DIXON          FAIR      17  13  83 CALM      30.24R
RAWLINS        FAIR      31  16  54 W12       30.15R WCI  22
SARATOGA       FAIR      30  23  74 W13G20    30.16R WCI  20
LARAMIE        MOCLDY    32  20  61 NW13      30.07R WCI  22
CHEYENNE       MOCLDY    31  27  85 N17       30.06R WCI  19
TORRINGTON     FAIR      34  28  79 NW14      30.01R WCI  25
PINE BLUFFS    FLURRIES  32  32 100 NW17G29   30.06R WCI  21

$$



USA.gov is the U.S. government's official web portal to all federal, state and local government web resources and services.